Temp
-11 -11 -11 -11 -11 -11 -11 -11 -11 -11 -10 -10 -11 -11 -11 -11 -11 -11 -11 -11 -11 -11 -11 -12 -12 -12 -11 -11 -11 -11 -11 -11
-12 -11 -11 -11 -11 -11 -11 -11 -11 -11 -11 -11 -11 -11 -11 -11 -11 -11 -11 -11 -11 -11 -11 -12 -12 -12 -12 -12 -11 -11 -11 -11
-12 -12 -12 -12 -12 -12 -12 -12 -12 -11 -12 -11 -11 -11 -11 -11 -11 -11 -11 -11 -11 -12 -12 -12 -12 -13 -12 -12 -12 -12 -12 -12
-11 -12 -12 -12 -12 -12 -12 -12 -12 -12 -12 -12 -12 -12 -12 -12 -12 -12 -12 -12 -12 -12 -12 -12 -12 -13 -13 -13 -13 -12 -12 -12
-11 -11 -12 -12 -12 -11 -12 -12 -12 -12 -12 -12 -12 -12 -12 -12 -12 -12 -12 -12 -12 -12 -12 -13 -13 -12 -12 -13 -13 -13 -13 -13
-12 -12 -12 -12 -12 -12 -12 -12 -12 -12 -12 -12 -12 -12 -12 -12 -12 -12 -12 -12 -12 -12 -12 -12 -12 -13 -12 -13 -13 -13 -13 -13
-12 -12 -12 -12 -12 -11 -11 -12 -12 -12 -12 -12 -12 -12 -12 -12 -12 -12 -12 -12 -12 -12 -12 -12 -12 -12 -13 -12 -13 -13 -13 -13
-11 -11 -11 -11 -11 -11 -11 -11 -11 -11 -11 -12 -12 -12 -12 -12 -12 -12 -12 -12 -12 -12 -12 -12 -12 -12 -12 -13 -12 -13 -13 -13
-12 -12 -12 -12 -12 -12 -11 -11 -12 -11 -11 -11 -12 -12 -12 -12 -12 -12 -12 -12 -12 -13 -13 -13 -13 -12 -12 -12 -12 -12 -12 -13
-12 -12 -12 -12 -12 -13 -13 -12 -12 -12 -12 -12 -12 -12 -12 -12 -12 -12 -13 -13 -13 -13 -13 -13 -13 -13 -13 -13 -12 -12 -12 -13
-12 -12 -12 -12 -12 -12 -12 -12 -12 -12 -12 -12 -12 -12 -12 -12 -12 -13 -13 -13 -13 -13 -14 -14 -14 -13 -13 -13 -13 -13 -12 -13
-12 -12 -12 -12 -12 -12 -13 -13 -13 -13 -13 -13 -13 -13 -13 -13 -13 -14 -14 -14 -14 -14 -14 -14 -14 -14 -14 -13 -13 -13 -13 -13
-13 -13 -13 -13 -13 -13 -13 -13 -13 -14 -14 -14 -14 -14 -14 -15 -15 -15 -15 -15 -15 -15 -15 -15 -14 -14 -14 -14 -14 -14 -13 -13
-13 -13 -13 -13 -14 -14 -14 -14 -14 -15 -15 -16 -16 -16 -16 -16 -16 -16 -16 -16 -16 -16 -16 -16 -16 -15 -15 -14 -14 -14 -14 -14
-13 -14 -14 -14 -14 -14 -14 -15 -16 -16 -16 -16 -16 -17 -16 -17 -17 -17 -17 -17 -17 -17 -17 -17 -17 -17 -16 -15 -15 -14 -14 -14
-14 -14 -14 -15 -15 -15 -15 -16 -16 -16 -17 -17 -17 -17 -17 -18 -18 -17 -17 -17 -17 -17 -17 -17 -17 -16 -17 -17 -17 -16 -14 -14
-15 -15 -15 -15 -15 -16 -16 -16 -17 -17 -17 -18 -18 -18 -18 -18 -18 -18 -18 -18 -18 -18 -18 -18 -18 -17 -17 -17 -17 -17 -17 -15
-15 -15 -15 -16 -17 -17 -17 -18 -18 -18 -18 -18 -18 -18 -19 -19 -19 -19 -19 -19 -18 -19 -19 -19 -19 -18 -18 -17 -17 -17 -18 -17
-16 -17 -17 -18 -18 -18 -18 -18 -18 -18 -18 -19 -19 -19 -19 -19 -19 -19 -20 -20 -21 -22 -22 -22 -22 -22 -22 -21 -20 -18 -17 -18
-17 -18 -18 -19 -19 -19 -19 -19 -19 -19 -19 -19 -20 -20 -20 -20 -20 -20 -21 -22 -22 -22 -22 -22 -22 -21 -22 -21 -22 -22 -20 -18
Height
5848 5847 5846 5845 5844 5844 5843 5841 5840 5839 5838 5837 5835 5834 5833 5832 5830 5829 5828 5827 5824 5822 5820 5818 5816 5814 5814 5813 5811 5809 5808 5806
5844 5843 5841 5840 5839 5839 5838 5836 5836 5834 5833 5831 5830 5828 5827 5826 5824 5823 5821 5820 5818 5816 5815 5813 5811 5809 5808 5808 5806 5804 5803 5802
5839 5838 5837 5836 5834 5833 5832 5831 5829 5828 5827 5826 5824 5823 5821 5819 5818 5816 5814 5813 5811 5810 5808 5807 5806 5804 5801 5801 5800 5799 5798 5797
5835 5833 5832 5831 5829 5828 5826 5824 5823 5821 5820 5818 5817 5816 5814 5812 5810 5809 5807 5805 5803 5802 5801 5800 5799 5797 5796 5795 5794 5794 5792 5792
5830 5828 5826 5825 5824 5822 5820 5818 5816 5815 5813 5812 5811 5809 5807 5806 5804 5801 5799 5798 5795 5794 5792 5792 5792 5790 5790 5789 5788 5787 5786 5785
5825 5823 5821 5819 5817 5815 5814 5812 5810 5808 5805 5804 5802 5801 5800 5798 5797 5794 5792 5790 5789 5786 5784 5783 5783 5782 5781 5782 5781 5780 5779 5779
5818 5816 5814 5813 5811 5809 5807 5805 5804 5802 5799 5796 5794 5793 5792 5790 5788 5786 5784 5783 5781 5779 5777 5775 5774 5774 5773 5771 5772 5772 5771 5771
5811 5809 5807 5804 5802 5801 5799 5796 5794 5793 5792 5790 5788 5785 5782 5779 5778 5776 5775 5773 5771 5769 5768 5767 5766 5765 5764 5763 5762 5762 5763 5762
5804 5802 5799 5797 5795 5793 5791 5789 5788 5785 5782 5780 5778 5776 5774 5771 5769 5766 5764 5762 5760 5759 5757 5755 5755 5755 5755 5754 5753 5753 5752 5753
5798 5796 5793 5790 5788 5786 5784 5781 5779 5776 5773 5770 5767 5764 5761 5759 5757 5755 5753 5751 5749 5747 5745 5743 5742 5743 5743 5744 5744 5743 5743 5743
5791 5788 5785 5783 5780 5778 5775 5772 5769 5766 5762 5759 5756 5752 5748 5745 5742 5741 5739 5737 5735 5733 5732 5730 5728 5727 5728 5730 5732 5733 5732 5731
5783 5781 5778 5774 5771 5768 5765 5761 5757 5753 5750 5746 5742 5739 5735 5731 5728 5724 5722 5721 5718 5716 5714 5713 5712 5712 5711 5712 5715 5717 5719 5719
5775 5771 5768 5764 5760 5756 5752 5747 5742 5738 5734 5730 5725 5721 5717 5714 5710 5707 5705 5702 5700 5698 5697 5696 5694 5691 5694 5695 5696 5699 5701 5703
5764 5760 5757 5753 5749 5744 5739 5734 5729 5724 5718 5714 5709 5705 5700 5696 5692 5688 5685 5682 5678 5675 5674 5674 5674 5673 5673 5673 5677 5680 5680 5684
5753 5749 5745 5740 5736 5730 5725 5719 5714 5708 5703 5697 5692 5687 5683 5679 5675 5671 5667 5663 5659 5655 5652 5650 5651 5650 5649 5648 5655 5656 5660 5663
5741 5736 5732 5727 5721 5716 5711 5704 5698 5693 5687 5680 5674 5670 5665 5661 5657 5654 5650 5646 5641 5637 5632 5629 5628 5628 5627 5626 5624 5628 5634 5642
5728 5724 5719 5713 5708 5701 5696 5690 5684 5678 5672 5666 5660 5654 5648 5643 5639 5634 5630 5626 5622 5617 5611 5606 5603 5603 5602 5603 5604 5602 5605 5612
5716 5711 5705 5699 5694 5689 5683 5677 5670 5664 5658 5653 5648 5642 5636 5630 5624 5619 5614 5608 5603 5596 5589 5582 5576 5575 5574 5573 5576 5579 5581 5583
5702 5697 5691 5686 5681 5675 5669 5663 5655 5649 5643 5638 5632 5627 5622 5616 5610 5603 5596 5589 5583 5577 5571 5566 5560 5555 5550 5546 5545 5549 5554 5559
5689 5683 5678 5673 5666 5660 5654 5647 5641 5634 5629 5624 5619 5614 5609 5603 5595 5588 5582 5575 5570 5564 5557 5552 5546 5538 5533 5529 5527 5525 5525 5531
Wind_Speed
26 28 29 29 29 28 28 29 31 31 31 30 29 29 30 31 31 31 29 30 28 28 29 31 30 31 32 31 30 29 28 27
25 26 28 31 31 32 32 32 32 33 33 33 33 32 33 33 33 34 34 34 34 32 31 31 32 30 30 30 30 30 29 27
25 26 26 27 29 30 32 33 34 34 34 34 35 35 35 36 36 36 35 36 35 35 35 35 32 32 30 29 31 31 31 29
26 27 27 28 28 29 31 33 32 32 34 34 34 35 36 36 36 37 37 38 39 41 39 35 33 31 33 36 36 37 35 31
26 27 28 29 31 32 33 33 35 36 36 36 37 38 38 39 40 41 41 41 42 41 39 36 34 35 34 34 33 33 35 36
27 28 30 30 29 30 30 32 35 38 38 38 39 39 40 41 41 41 41 41 41 40 40 39 36 38 38 38 37 35 32 31
28 31 33 34 33 33 32 32 34 36 39 41 43 44 44 44 44 45 45 45 45 45 44 43 44 41 42 43 41 40 39 35
33 35 38 39 39 38 37 36 38 39 39 40 42 44 47 50 51 51 50 49 49 49 49 48 46 47 45 46 46 43 43 43
36 37 38 39 41 42 43 42 42 44 46 48 49 49 50 52 53 53 53 53 52 51 50 50 50 49 49 49 49 48 46 45
39 39 40 41 43 45 46 49 51 52 53 54 55 57 58 58 57 58 57 56 56 57 55 54 53 52 52 52 52 53 52 48
39 41 42 45 47 49 51 53 55 56 58 61 62 64 66 67 67 64 62 61 60 58 56 57 58 59 56 55 55 54 56 55
42 46 49 51 51 51 52 56 59 62 64 66 65 64 65 66 66 66 66 66 66 66 65 64 62 62 64 63 58 58 58 59
49 51 51 52 54 58 61 64 67 69 69 70 70 69 68 68 69 69 70 71 71 70 71 71 71 72 69 67 67 63 61 61
51 53 54 56 59 61 64 69 71 71 68 67 68 69 70 72 73 75 76 75 75 75 75 74 73 75 77 78 75 71 69 66
56 57 60 62 64 68 72 72 71 70 71 70 69 69 69 69 68 67 68 68 68 69 70 71 70 69 73 79 81 83 78 75
59 62 65 68 72 74 73 71 70 69 68 67 66 65 63 61 63 64 64 64 64 66 68 71 72 73 73 73 76 80 86 84
63 66 69 73 74 70 69 69 69 69 67 66 65 63 63 65 63 64 65 68 69 71 74 75 76 76 77 76 73 76 77 84
67 71 72 69 67 68 66 67 67 66 65 62 62 61 60 60 61 63 66 68 70 71 72 71 73 77 79 80 80 77 77 78
66 65 65 66 63 63 64 64 63 62 60 59 59 57 57 59 60 62 64 63 57 55 51 49 55 58 59 61 68 77 80 80
62 62 61 61 62 62 61 60 59 59 60 58 54 54 55 56 58 59 55 48 41 43 47 50 56 55 54 56 56 56 66 78
Wind_Direction
285 285 283 284 284 282 282 282 283 284 284 284 284 286 289 290 291 290 291 290 290 292 289 288 289 292 295 298 301 302 302 298
286 283 284 285 284 284 282 280 280 280 279 280 283 283 284 285 287 289 290 289 288 291 291 290 285 288 291 295 297 301 302 302
286 284 284 285 287 287 285 282 282 282 281 280 281 282 282 283 285 285 285 284 285 286 288 289 288 283 287 290 296 299 302 301
290 289 287 283 283 285 286 286 284 282 283 284 284 283 284 283 285 285 285 288 289 291 292 292 285 285 282 282 286 292 295 298
289 291 291 289 285 286 288 288 287 285 282 280 280 281 281 282 282 283 284 285 286 287 288 287 286 286 289 288 287 285 287 291
295 295 294 295 297 298 297 295 292 291 291 289 287 286 285 284 284 284 284 283 283 285 286 287 288 288 288 285 286 285 283 288
301 301 301 298 295 295 295 296 292 288 288 289 291 290 289 287 285 284 282 281 282 280 279 279 282 282 285 287 286 285 282 283
293 296 296 295 295 293 293 296 297 296 293 290 290 289 288 287 285 284 283 282 280 279 278 277 275 277 277 279 281 281 281 283
291 289 288 288 288 288 287 288 290 292 293 292 290 288 287 285 284 284 284 283 281 279 276 274 273 271 271 272 274 276 277 277
289 291 292 292 291 288 284 286 291 293 293 293 291 291 290 287 284 284 282 280 280 280 279 279 276 273 271 268 267 270 272 272
283 282 284 287 289 289 289 291 294 295 295 294 294 292 290 288 286 284 281 279 277 274 274 276 277 276 272 270 268 265 266 267
282 282 284 287 289 290 291 291 291 292 294 294 295 293 289 286 285 284 283 280 278 276 274 273 270 269 273 272 267 266 263 264
287 288 288 289 291 294 294 295 297 298 297 297 294 290 287 286 286 284 282 280 278 276 274 273 274 274 270 267 269 265 263 261
288 289 289 291 294 296 297 298 296 295 292 291 290 289 289 289 287 286 285 284 283 282 280 278 275 273 269 269 266 265 264 258
287 288 290 292 293 296 298 298 295 294 294 294 293 292 290 287 286 285 285 285 285 284 282 280 277 274 269 268 263 262 262 262
289 290 292 293 296 298 298 297 296 296 296 295 294 294 293 291 291 290 289 288 287 286 284 281 278 276 275 272 268 262 256 256
289 292 293 295 297 298 297 297 298 298 297 296 298 298 297 297 297 296 295 293 292 290 289 287 284 279 273 269 266 264 262 253
292 294 296 296 296 297 299 298 296 294 294 294 296 297 297 298 298 298 297 297 297 295 294 292 288 283 276 270 264 260 257 257
295 295 295 297 299 297 297 297 297 299 300 299 299 299 299 299 300 301 303 303 301 299 296 293 291 289 284 279 270 261 255 252
295 297 299 299 299 299 299 299 301 302 302 301 300 300 300 302 304 304 303 299 299 306 304 299 297 292 282 278 274 270 260 251